| time (UTC) | temp F | wind direction | speed knots | gust knots | rain 1hr in | rain 24hr in | rain mn in | humidity % | barometer mb |
| 20260505010049 | 56 | 11 | 7.0 | 16.5 | 0.00 | 0.00 | 0.00 | 43 | 1013.7 |
| 20260505010010 | 56 | 11 | 7.0 | 16.5 | 0.00 | 0.00 | 0.00 | 43 | 1011.3 |
| 20260505004556 | 57 | 49 | 2.6 | 10.4 | 0.00 | 0.00 | 0.00 | 44 | 1011.1 |
| 20260505004552 | 57 | 48 | 3.5 | 13.9 | 0.00 | 0.00 | 0.00 | 44 | 1013.6 |
| 20260505003045 | 57 | 36 | 7.0 | 15.6 | 0.00 | 0.00 | 0.00 | 43 | 1011.2 |
| 20260505003043 | 57 | 316 | 6.1 | 15.6 | 0.00 | 0.00 | 0.00 | 42 | 1013.7 |
| 20260505001552 | 57 | 10 | 6.1 | 13.9 | 0.00 | 0.00 | 0.00 | 42 | 1013.7 |
| 20260505001534 | 57 | 19 | 5.2 | 13.9 | 0.00 | 0.00 | 0.00 | 43 | 1011.0 |
| 20260505000106 | 57 | 58 | 6.1 | 13.9 | 0.00 | 0.00 | 0.00 | 43 | 1013.6 |
| 20260505000035 | 57 | 65 | 7.0 | 13.9 | 0.00 | 0.00 | 0.00 | 43 | 1011.0 |
| 20260504234546 | 57 | 352 | 7.0 | 13.9 | 0.00 | 0.00 | 0.00 | 42 | 1013.6 |
| 20260504234519 | 57 | 346 | 7.0 | 13.9 | 0.00 | 0.00 | 0.00 | 43 | 1010.9 |
| 20260504233051 | 58 | 344 | 7.0 | 13.9 | 0.00 | 0.00 | 0.00 | 42 | 1013.4 |
| 20260504233012 | 58 | 348 | 7.8 | 13.9 | 0.00 | 0.00 | 0.00 | 43 | 1010.7 |
| 20260504231557 | 57 | 32 | 5.2 | 12.2 | 0.00 | 0.00 | 0.00 | 44 | 1010.8 |
| 20260504231546 | 57 | 335 | 5.2 | 13.9 | 0.00 | 0.00 | 0.00 | 44 | 1013.6 |
| 20260504230104 | 57 | 63 | 6.1 | 13.9 | 0.00 | 0.00 | 0.00 | 43 | 1010.6 |
| 20260504224549 | 58 | 26 | 4.3 | 11.3 | 0.00 | 0.00 | 0.00 | 41 | 1010.7 |
| 20260504224544 | 58 | 34 | 3.5 | 11.3 | 0.00 | 0.00 | 0.00 | 41 | 1013.5 |
| 20260504223044 | 58 | 30 | 5.2 | 10.4 | 0.00 | 0.00 | 0.00 | 41 | 1013.4 |
| 20260504223042 | 58 | 19 | 6.1 | 10.4 | 0.00 | 0.00 | 0.00 | 41 | 1010.7 |
| 20260504221558 | 59 | 360 | 4.3 | 11.3 | 0.00 | 0.00 | 0.00 | 41 | 1013.5 |
| 20260504221553 | 59 | 20 | 4.3 | 11.3 | 0.00 | 0.00 | 0.00 | 41 | 1010.5 |
| 20260504220046 | 59 | 351 | 4.3 | 11.3 | 0.00 | 0.00 | 0.00 | 40 | 1013.5 |
| 20260504220037 | 59 | 27 | 5.2 | 11.3 | 0.00 | 0.00 | 0.00 | 41 | 1010.5 |
| 20260504214542 | 58 | 28 | 3.5 | 9.6 | 0.00 | 0.00 | 0.00 | 41 | 1013.5 |
| 20260504214529 | 58 | 22 | 4.3 | 9.6 | 0.00 | 0.00 | 0.00 | 41 | 1010.5 |
| 20260504213050 | 59 | 59 | 6.1 | 11.3 | 0.00 | 0.00 | 0.00 | 40 | 1013.6 |
| 20260504213017 | 59 | 55 | 5.2 | 11.3 | 0.00 | 0.00 | 0.00 | 40 | 1010.5 |
| 20260504211548 | 59 | 10 | 3.5 | 10.4 | 0.00 | 0.00 | 0.00 | 41 | 1013.5 |
| 20260504211515 | 59 | 34 | 3.5 | 10.4 | 0.00 | 0.00 | 0.00 | 41 | 1010.4 |
| 20260504210057 | 58 | 30 | 3.5 | 13.0 | 0.00 | 0.00 | 0.00 | 44 | 1010.4 |
| 20260504210048 | 58 | 63 | 4.3 | 13.0 | 0.00 | 0.00 | 0.00 | 44 | 1013.5 |
| 20260504204600 | 58 | 332 | 4.3 | 10.4 | 0.00 | 0.00 | 0.00 | 41 | 1013.6 |
| 20260504204547 | 58 | 9 | 4.3 | 10.4 | 0.00 | 0.00 | 0.00 | 42 | 1010.4 |
| 20260504203101 | 59 | 66 | 3.5 | 9.6 | 0.00 | 0.00 | 0.00 | 42 | 1013.4 |
| 20260504203049 | 59 | 317 | 2.6 | 9.6 | 0.00 | 0.00 | 0.00 | 42 | 1010.2 |
| 20260504201544 | 58 | 5 | 5.2 | 11.3 | 0.00 | 0.00 | 0.00 | 41 | 1013.6 |
| 20260504201539 | 58 | 17 | 6.1 | 11.3 | 0.00 | 0.00 | 0.00 | 41 | 1010.5 |
| 20260504200050 | 59 | 336 | 5.2 | 13.0 | 0.00 | 0.00 | 0.00 | 41 | 1013.4 |
| 20260504200035 | 59 | 355 | 7.0 | 11.3 | 0.00 | 0.00 | 0.00 | 41 | 1010.2 |
| 20260504194549 | 58 | 13 | 3.5 | 10.4 | 0.00 | 0.00 | 0.00 | 42 | 1013.6 |
| 20260504194533 | 58 | 34 | 3.5 | 8.7 | 0.00 | 0.00 | 0.00 | 43 | 1010.3 |
| 20260504193045 | 58 | 329 | 3.5 | 15.6 | 0.00 | 0.00 | 0.00 | 42 | 1013.6 |
| 20260504193030 | 58 | 327 | 3.5 | 15.6 | 0.00 | 0.00 | 0.00 | 43 | 1010.3 |
| 20260504191602 | 58 | 352 | 4.3 | 11.3 | 0.00 | 0.00 | 0.00 | 43 | 1013.6 |
| 20260504191529 | 58 | 15 | 5.2 | 11.3 | 0.00 | 0.00 | 0.00 | 43 | 1010.3 |
| 20260504190058 | 59 | 329 | 6.1 | 12.2 | 0.00 | 0.00 | 0.00 | 41 | 1013.7 |
| 20260504190020 | 59 | 5 | 6.1 | 12.2 | 0.00 | 0.00 | 0.00 | 41 | 1010.2 |
| 20260504184547 | 58 | 25 | 2.6 | 13.0 | 0.00 | 0.00 | 0.00 | 42 | 1013.8 |
| 20260504184514 | 58 | 17 | 3.5 | 13.0 | 0.00 | 0.00 | 0.00 | 41 | 1010.4 |
| 20260504183047 | 57 | 13 | 4.3 | 11.3 | 0.00 | 0.00 | 0.00 | 42 | 1013.9 |
| 20260504183003 | 58 | 97 | 5.2 | 11.3 | 0.00 | 0.00 | 0.00 | 42 | 1010.4 |
| 20260504181600 | 57 | 28 | 4.3 | 23.5 | 0.00 | 0.00 | 0.00 | 42 | 1010.5 |
| 20260504181545 | 57 | 22 | 5.2 | 23.5 | 0.00 | 0.00 | 0.00 | 41 | 1014.0 |
| 20260504180047 | 57 | 341 | 3.5 | 10.4 | 0.00 | 0.00 | 0.00 | 43 | 1010.5 |
| 20260504180042 | 57 | 352 | 4.3 | 10.4 | 0.00 | 0.00 | 0.00 | 42 | 1013.9 |
| 20260504174544 | 56 | 63 | 2.6 | 13.9 | 0.00 | 0.00 | 0.00 | 43 | 1014.1 |
| 20260504174537 | 56 | 42 | 3.5 | 13.9 | 0.00 | 0.00 | 0.00 | 43 | 1010.7 |
| 20260504173047 | 56 | 340 | 0.9 | 12.2 | 0.00 | 0.00 | 0.00 | 44 | 1014.1 |
| 20260504173030 | 56 | 340 | 0.9 | 12.2 | 0.00 | 0.00 | 0.00 | 44 | 1010.6 |
| 20260504171547 | 56 | 109 | 2.6 | 10.4 | 0.00 | 0.00 | 0.00 | 44 | 1014.2 |
| 20260504171519 | 56 | 23 | 2.6 | 10.4 | 0.00 | 0.00 | 0.00 | 44 | 1010.7 |
| 20260504100104 | 50 | 76 | 3.5 | 8.7 | 0.00 | 0.00 | 0.00 | 48 | 1009.6 |
| 20260504081549 | 56 | 23 | 5.2 | 13.0 | 0.00 | 0.00 | 0.00 | 42 | 1011.6 |
| 20260504081522 | 56 | 11 | 4.3 | 12.2 | 0.00 | 0.00 | 0.00 | 42 | 1009.0 |
| 20260504060104 | 46 | 121 | 1.7 | 2.6 | 0.00 | 0.00 | 0.00 | 67 | 1008.2 |
| 20260504050022 | 47 | 121 | 0.9 | 1.7 | 0.00 | 0.00 | 0.00 | 66 | 1008.4 |
| 20260504044546 | 48 | 0 | 0.9 | 2.6 | 0.00 | 0.00 | 0.00 | 64 | 1011.1 |
| 20260504044516 | 48 | 121 | 0.9 | 2.6 | 0.00 | 0.00 | 0.00 | 65 | 1008.4 |
| 20260504043050 | 49 | 121 | 0.9 | 1.7 | 0.00 | 0.00 | 0.00 | 60 | 1011.0 |
| 20260504043012 | 49 | 121 | 0.9 | 1.7 | 0.00 | 0.00 | 0.00 | 60 | 1008.3 |
| 20260504041601 | 50 | 121 | 1.7 | 2.6 | 0.00 | 0.00 | 0.00 | 60 | 1008.4 |
| 20260504041546 | 50 | 121 | 1.7 | 2.6 | 0.00 | 0.00 | 0.00 | 59 | 1011.2 |
| 20260504041509 | 50 | 121 | 1.7 | 2.6 | 0.00 | 0.00 | 0.00 | 59 | 1008.4 |
| 20260504040054 | 53 | 106 | 1.7 | 2.6 | 0.00 | 0.00 | 0.00 | 52 | 1008.4 |
| 20260504040050 | 53 | 107 | 1.7 | 2.6 | 0.00 | 0.00 | 0.00 | 52 | 1011.2 |
| 20260504034550 | 53 | 112 | 1.7 | 2.6 | 0.00 | 0.00 | 0.00 | 52 | 1008.3 |
| 20260504034544 | 53 | 112 | 1.7 | 2.6 | 0.00 | 0.00 | 0.00 | 52 | 1011.0 |
| 20260504033047 | 55 | 103 | 1.7 | 3.5 | 0.00 | 0.00 | 0.00 | 50 | 1010.9 |
| 20260504033044 | 55 | 103 | 1.7 | 3.5 | 0.00 | 0.00 | 0.00 | 50 | 1008.2 |
| 20260504031549 | 56 | 111 | 1.7 | 2.6 | 0.00 | 0.00 | 0.00 | 50 | 1010.8 |
| 20260504031543 | 56 | 111 | 1.7 | 2.6 | 0.00 | 0.00 | 0.00 | 51 | 1008.0 |
| 20260504030049 | 59 | 117 | 0.9 | 2.6 | 0.00 | 0.00 | 0.00 | 43 | 1010.7 |
| 20260504030035 | 59 | 117 | 0.9 | 2.6 | 0.00 | 0.00 | 0.00 | 43 | 1007.9 |
| 20260504024600 | 63 | 22 | 0.0 | 2.6 | 0.00 | 0.00 | 0.00 | 35 | 1010.6 |
| 20260504024522 | 63 | 22 | 0.0 | 2.6 | 0.00 | 0.00 | 0.00 | 35 | 1007.8 |
| 20260504023045 | 64 | 5 | 0.0 | 2.6 | 0.00 | 0.00 | 0.00 | 32 | 1010.6 |
| 20260504023020 | 64 | 297 | 0.0 | 2.6 | 0.00 | 0.00 | 0.00 | 32 | 1007.8 |
| 20260504021546 | 66 | 298 | 0.0 | 3.5 | 0.00 | 0.00 | 0.00 | 29 | 1010.7 |
| 20260504021517 | 66 | 290 | 0.9 | 3.5 | 0.00 | 0.00 | 0.00 | 30 | 1007.8 |
| 20260504020058 | 67 | 292 | 1.7 | 5.2 | 0.00 | 0.00 | 0.00 | 28 | 1007.9 |
| 20260504020047 | 67 | 309 | 1.7 | 7.0 | 0.00 | 0.00 | 0.00 | 28 | 1010.7 |
| 20260504014551 | 68 | 285 | 1.7 | 5.2 | 0.00 | 0.00 | 0.00 | 27 | 1007.9 |
| 20260504014547 | 68 | 220 | 0.9 | 5.2 | 0.00 | 0.00 | 0.00 | 27 | 1010.7 |
| 20260504013046 | 69 | 318 | 2.6 | 7.0 | 0.00 | 0.00 | 0.00 | 24 | 1010.7 |
| 20260504013042 | 69 | 269 | 2.6 | 7.0 | 0.00 | 0.00 | 0.00 | 25 | 1008.0 |
| 20260504011546 | 70 | 313 | 1.7 | 7.0 | 0.00 | 0.00 | 0.00 | 24 | 1010.6 |
| 20260504011529 | 70 | 313 | 1.7 | 7.0 | 0.00 | 0.00 | 0.00 | 24 | 1008.0 |